This is the latest recevied weather packets stored in our database for station/object K9YK-13. If no packets are shown the sender has not sent any weather packets the latest 10 day(s).
| Time | Temp. | Humidity | Pressure | Rain* | Wind** | Luminosity | Snow |
|---|---|---|---|---|---|---|---|
| 1778103069 | 15° C | 48% | 0 hPa | 0 mm | - | - | - |
| 1778102769 | 15.56° C | 51% | 0 hPa | 0 mm | - | - | - |
| 1778102469 | 15.56° C | 50% | 0 hPa | 0 mm | - | - | - |
| 1778102169 | 15° C | 51% | 0 hPa | 0 mm | - | - | - |
| 1778101869 | 16.11° C | 51% | 0 hPa | 0 mm | - | - | - |
| 1778101569 | 15.56° C | 48% | 0 hPa | 0 mm | - | - | - |
| 1778101269 | 15.56° C | 52% | 0 hPa | 0 mm | - | - | - |
| 1778100969 | 15.56° C | 47% | 0 hPa | 0 mm | - | - | - |
| 1778100669 | 15° C | 49% | 0 hPa | 0 mm | - | - | - |
| 1778100369 | 16.11° C | 47% | 0 hPa | 0 mm | - | - | - |
| 1778100069 | 16.67° C | 47% | 0 hPa | 0 mm | - | - | - |
| 1778099769 | 16.67° C | 47% | 0 hPa | 0 mm | - | - | - |
| 1778099469 | 15.56° C | 49% | 0 hPa | 0 mm | - | - | - |
| 1778099169 | 16.11° C | 47% | 0 hPa | 0 mm | - | - | - |
| 1778098869 | 16.11° C | 53% | 0 hPa | 0 mm | - | - | - |
| 1778098569 | 16.11° C | 49% | 0 hPa | 0 mm | - | - | - |
| 1778098269 | 16.11° C | 45% | 0 hPa | 0 mm | - | - | - |
| 1778097969 | 16.67° C | 49% | 0 hPa | 0 mm | - | - | - |
| 1778097669 | 16.67° C | 49% | 0 hPa | 0 mm | - | - | - |
| 1778097369 | 16.11° C | 49% | 0 hPa | 0 mm | - | - | - |
| 1778097069 | 16.67° C | 48% | 0 hPa | 0 mm | - | - | - |
| 1778096769 | 16.67° C | 51% | 0 hPa | 0 mm | - | - | - |
| 1778096469 | 16.67° C | 46% | 0 hPa | 0 mm | - | - | - |
| 1778096169 | 16.67° C | 47% | 0 hPa | 0 mm | - | - | - |
| 1778095869 | 16.11° C | 47% | 0 hPa | 0 mm | - | - | - |
* Rain latest hour (hover to see other rain measurements)
** Current wind speed in m/s (hover to see current wind gust speed)